www.pogodaiklimat.ru

Погода и климат >> Архив погоды >> Финляндия >> Вийтасаари


ПОГОДА в Вийтасаари

  • Прогноз погоды в Вийтасаари
  • Монитор погоды в Вийтасаари

АРХИВ ПОГОДЫ в Вийтасаари

Время (UTC), дата Ветер
(напр.,м/с)
 
Видим.   Явления Облачность Т
(С)
Тd
(С)
f
(%)
Тe
(С)
Тes
(С)
Комфортность P
(гПа)
Po
(гПа)
Тmin
(С)
Tmax
(С)
R
(мм)
R24
(мм)
S
(см)
15 18.08 В 4-6
{8}
45 км в посл. час дождь {ливн. осадки} 9/4 1500 м
[]
+20.3 +9.3 49 +22 +22 комфорт 1010.8 995.5
18 18.08 В 3-6
{7}
50 км {ливн. осадки, дождь} 9/3 1500 м
[]
+18.7 +8.9 53 +19 +19 1010.4 995.1 +17.9 +22.7
21 18.08 В 4-7
{7}
50 км в посл. час морось {ливн. осадки, дождь} 9/9 2000 м
[]
+17.0 +8.9 59 +17 +17 1009.6 994.2
00 19.08 В 4-7
{7}
50 км {ливн. осадки, дождь} 10/0
[]
+16.0 +9.7 66 +15 +15 1008.7 993.2
03 19.08 В 4-7
{9}
50 км 10/0 2000 м
[]
+15.7 +10.2 70 +15 +15 1007.1 991.6
06 19.08 В 5-9
{9}
19 км слаб. дождь {морось} 10/10 2000 м
[]
+14.1 +12.6 91 +12 +12 1005.6 990.1 +14.0 +18.8 1
09 19.08 В 5-9
{11}
35 км слаб. дождь 10/10 300 м
[]
+15.3 +14.2 93 +14 +14 1003.8 988.4 0.4
12 19.08 ЮВ 4-8
{9}
26 км {ливн. осадки, дождь} 10/0 200 м
[]
+16.5 +15.7 95 +16 +18 1004.7 989.3
15 19.08 ЮВ 2-4
{7}
40 км {ливн. осадки, дождь} 10/0 1000 м
[]
+18.2 +16.0 87 +19 +20 1006.0 990.6
18 19.08 Ю 3-5
{5}
50 км {ливн. осадки, дождь} 4/4 1500 м
[]
+16.4 +12.4 77 +16 +16 1007.7 992.2 +14.0 +19.4 2
21 19.08 Ю 3-5
{5}
50 км ясно +13.5 +11.5 88 +12 +12 1009.7 994.1
00 20.08 ЮВ 2-4
{4}
50 км ясно +11.7 +11.1 96 +10 +10 1010.4 994.6
03 20.08 ЮВ 2-4
{5}
40 км ясно +11.2 +11.0 99 +10 +10 1011.5 995.8
06 20.08 ЮВ 3-5
{6}
45 км ясно +15.8 +12.2 79 +15 +18 1012.1 996.5 +11.2 +16.4
09 20.08 ЮВ 4-8
{9}
45 км 9/0 600 м
[]
+17.9 +11.3 65 +18 +21 1013.2 997.8
12 20.08 Ю 4-6
{9}
35 км 3/1 1000 м
[]
+20.0 +10.0 53 +21 +25 комфорт 1013.4 998.1
15 20.08 Ю 3-7
{9}
40 км {ливн. осадки, дождь} 3/1 1500 м
[]
+20.4 +9.0 48 +22 +24 комфорт 1014.1 998.7
18 20.08 Ю 3-4
{4}
50 км {ливн. осадки, дождь} ясно +16.9 +10.3 65 +17 +17 1015.2 999.6 +15.3 +21.3
21 20.08 Ю 2-3
{4}
50 км 8/5 1000 м
[]
+14.2 +10.7 79 +14 +14 1016.8 1001.1
00 21.08 Ю 2-5
{5}
35 км {ливн. осадки, дождь} ясно +12.7 +11.8 94 +12 +12 1017.3 1001.5
03 21.08 ЮВ 2-5
{5}
18 км ясно +11.6 +11.5 99 +10 +10 1018.1 1002.2
06 21.08 ЮВ 3-7
{7}
35 км 4/4 300 м
[]
+15.4 +12.3 82 +15 +16 1018.9 1003.2 +11.5 +16.9
09 21.08 Ю 3-7
{7}
30 км 6/0 600 м
[]
+18.3 +11.8 66 +19 +23 1019.1 1003.6
12 21.08 Ю 2-5
{5}
40 км 4/4 1000 м
[]
+20.7 +9.2 48 +23 +27 комфорт 1018.2 1002.8
15 21.08 В 2-4
{5}
45 км {ливн. осадки, дождь} 4/3
[]
+18.7 +12.8 69 +20 +21 1017.7 1002.2
18 21.08 ЮВ 2-4
{5}
50 км {ливн. осадки, дождь} 3/0
[]
+14.9 +12.1 83 +15 +15 1017.8 1002.2 +14.8 +21.2
21 21.08 Ю 1-2
{3}
50 км в посл. час морось {ливн. осадки, дождь} ясно +12.7 +11.8 94 +13 +13 1017.9 1002.1
00 22.08 ЮЗ 1-2
{3}
45 км {ливн. осадки, дождь} 9/0
[]
+11.9 +11.0 94 +12 +12 1017.9 1002.0
03 22.08 ЮЗ 2-4
{4}
29 км 9/9 100 м
[]
+11.5 +10.9 96 +10 +10 1017.9 1002.0
06 22.08 ЮЗ 2-5
{5}
45 км 10/10 100 м
[]
+12.9 +11.8 93 +12 +12 1017.9 1002.1 +11.1 +14.9
09 22.08 ЮЗ 3-6
{6}
35 км 3/0 300 м
[]
+15.9 +10.5 70 +15 +21 1018.6 1003.0
12 22.08 ЮЗ 3-6
{8}
35 км 1/0 1000 м
[]
+18.7 +7.2 47 +19 +25 1018.8 1003.3
15 22.08 ЮЗ 3-7
{7}
40 км ясно +18.6 +5.7 43 +19 +21 1019.4 1003.8
18 22.08 ЮЗ 2-5
{6}
50 км ясно +15.6 +5.0 49 +16 +16 1020.1 1004.4 +12.7 +19.0
21 22.08 ЮЗ 1-2
{3}
50 км ясно +11.2 +6.2 71 +11 +11 1021.0 1005.1
00 23.08 штиль 0-1
{2}
50 км 1/0
[]
+9.2 +6.4 83 +8 +8 1020.6 1004.6
03 23.08 ЮВ 2-4
{5}
50 км в посл. час дождь {ливн. осадки} 9/5 600 м
[]
+10.5 +9.9 96 +9 +9 1019.4 1003.5 0.1
06 23.08 ЮВ 3-4
{4}
23 км слаб. морось {дождь} 9/9 100 м
[]
+11.7 +11.6 99 +10 +10 1018.6 1002.7 +8.6 +15.8 0.4
09 23.08 ЮВ 3-6
{6}
15 км {дождь, морось} 10/10 300 м
[]
+13.6 +12.3 92 +12 +12 1017.3 1001.6
12 23.08 ЮВ 2-4
{6}
45 км {ливн. осадки, дождь} 8/8 300 м
[]
+16.5 +12.7 78 +17 +18 1015.8 1000.2
15 23.08 ЮВ 2-4
{5}
45 км {ливн. осадки, дождь} 9/1 1500 м
[]
+16.1 +13.1 82 +16 +17 1014.0 998.4
18 23.08 ЮВ 2-3
{4}
35 км {ливн. осадки, дождь} 9/9
[]
+13.6 +12.0 90 +13 +13 1012.7 997.0 +11.7 +17.2 2
21 23.08 ЮЗ 1-3
{3}
16 км {ливн. осадки, дождь} 4/0 300 м
[]
+11.8 +11.8 100 +11 +11 1012.6 996.9
00 24.08 ЮЗ 2-4
{4}
15 км {ливн. осадки, дождь} 10/0 100 м
[]
+11.8 +11.8 100 +11 +11 1013.4 997.6
03 24.08 ЮЗ 1-3
{4}
40 км 10/0 200 м
[]
+12.1 +11.7 97 +12 +12 1014.3 998.6
06 24.08 З 2-5
{6}
17 км слаб. ливневой дождь {морось} 10/10 300 м
[]
+12.7 +11.4 92 +12 +12 1016.3 1000.5 +11.6 +13.9 1
09 24.08 З 2-5
{5}
45 км {ливн. осадки} 10/10 300 м
[]
+14.8 +10.1 73 +15 +15 1019.0 1003.3
12 24.08 ЮЗ 3-6
{6}
40 км {ливн. осадки} 9/0 1000 м
[]
+16.7 +11.2 70 +16 +20 1020.9 1005.2
15 24.08 З 3-7
{8}
50 км {ливн. осадки, дождь} 5/4 600 м
[]
+17.0 +10.4 65 +17 +18 1022.7 1007.1
18 24.08 З 2-4
{5}
50 км {ливн. осадки, дождь} 10/10 600 м
[]
+13.8 +9.7 76 +13 +13 1024.9 1009.1 +12.6 +17.8
21 24.08 З 2-3
{4}
50 км ясно +11.6 +9.5 87 +10 +10 1026.0 1010.0
00 25.08 Ю 1-2
{3}
50 км ясно +10.2 +10.0 99 +10 +10 1027.0 1011.0
03 25.08 штиль 0-1
{1}
23 км 9/0
[]
+9.8 +9.8 100 +9 +9 1027.6 1011.5
06 25.08 ЮВ 2-3
{3}
45 км 9/9
[]
+12.2 +10.9 92 +11 +11 1027.4 1011.4 +9.6 +13.8
09 25.08 ЮВ 2-4
{4}
45 км 9/9
[]
+17.0 +10.3 65 +17 +18 1026.3 1010.6
12 25.08 ЮВ 3-5
{5}
40 км 9/0
[]
+16.9 +11.1 69 +17 +20 1024.5 1008.9

 

Местоположение метеостанции Вийтасаари (Финляндия): широта 63.08 долгота 25.86 высота над уровнем моря 130 м.

В архиве по умолчанию представлена погода в Вийтасаари за последнюю неделю. Архивные данные за месяц целиком и за предыдущие месяцы, начиная с января 2011 года, Вы можете получить, выбрав интересующий диапазон дат из раскрывающегося списка и нажав кнопку "Ввод!".


*Определитесь, кто Вы:
робот инопланетянин человек

Внимание! Время в таблицах - всемирное. Для получения местного времени необходимо прибавить поправку, которая равна 1 ч.

Смотрите также архив погоды в соседних городах и на ближайших метеорологических станциях:

Погода в Весанто (Финляндия) (33 км)
Погода в Куопио Маанинка (Финляндия) (73 км)
Погода в Пюхяярви (Финляндия) (74 км)
Погода в Ювяскюля (Финляндия) (76 км)
Погода в Алаярви Моксы (Финляндия) (81 км)
Погода в Пуроле (Финляндия) (82 км)
Погода в Мультия Кархила (Финляндия) (83 км)
Погода в Куопио Савилахти (Финляндия) (92 км)
Погода в Аэропорту Куопио (Финляндия) (98 км)
Погода в Эхтяри (Финляндия) (103 км)

Пояснения к столбцам:

Ветер - указаны скорость ветра в м/с - средняя за 10 мин, порывы в срок и между сроками (в фигурных скобках) и направление, откуда дует ветер: С - северный, СВ - северо-восточный, В - восточный, ЮВ - юго-восточный, Ю - южный, ЮЗ - юго-западный, З - западный, СЗ - северо-западный.
Видимость - горизонтальная дальность видимости в метрах или километрах. При видимости от 1 до 10 км при отсутствии осадков обычно наблюдается дымка, при ухудшении видимости до 1 км и менее - туман. В сухую погоду видимость может ухудшаться дымом, пылью или мглою.
Явления - указаны атмосферные явления, наблюдавшиеся в срок или в последний час перед сроком; фигурными скобками обозначены явления, наблюдавшиеся между сроками (за 1-3 часа до срока); квадратными скобками обозначены град или гололедные отложения с указанием их диаметра в мм.
Облачность - указаны через наклонную черту общая и нижняя облачность в баллах и высота нижней границы облаков в метрах; квадратными скобками обозначены формы облаков: Ci - перистые, Cs - перисто-слоистые, Cc - перисто-кучевые, Ac - высококучевые, As - высокослоистые, Sc - слоисто-кучевые, Ns - слоисто-дождевые, Cu - кучевые, Cb - кучево-дождевые. Подробнее классификацию облаков см. в Атласе облаков (PDF).
T - Температура воздуха - температура, измеренная на высоте 2 м над землей.
Td - Температура точки росы - температура, при понижении до которой содержащийся в воздухе водяной пар достигнет насыщения.
f - Относительная влажность воздуха - влажноcть воздуха, измеренная на высоте 2 м над землей.
Te - Эффективная температура - температура, которую ощущает одетый по сезону человек в тени. Характеристика душности погоды. При расчете учитывается влияние влажности воздуха и скорости ветра на теплоощущения человека.
Tes - Эффективная температура на солнце - температура, которую ощущает человек, с поправкой на солнечный нагрев. Характеристика знойности погоды. Зависит от высоты солнца над горизонтом, облачности и скорости ветра. Ночью, в пасмурную погоду, а также при ветре 12 м/с и более поправка равна нулю.
P - Атмосферное давление - приведенное к уровню моря атмосферное давление.
Po - Атмосферное давление - измеренное на уровне метеостанции атмосферное давление.
Tmin - Минимальная температура - минимум температуры воздуха на высоте 2 м над землей.
Tmax - Максимальная температура - максимум температуры воздуха на высоте 2 м над землей.
R - Количество осадков - Количество выпавших осадков за период времени, мм. При наведении курсора мыши на число - период времени, за который выпало указанное количество осадков.
R24 - Количество осадков - Количество выпавших осадков за 24 часа, мм.
S - Снежный покров - Высота снежного покрова, см. При наведении курсора мыши на число - состояние снежного покрова и степень покрытия местности в баллах.